星链-31098 (STARLINK-31098 )

导读

STARLINK-31098是美国SpaceX星链互联网卫星星座的一员,于2024年1月3日发射升空。星链项目旨在构建全球卫星互联网网络,为全球偏远地区、海洋空域等提供高速互联网接入服务,这颗卫星入轨后,进一步扩充了星链星座的规模,增强了星座的覆盖能力与服务稳定性。

Basic Information
目录编号:
58716
目录名称:
STARLINK-31098
国际标识:
2024-002M
轨道中心:
EARTH
卫星名称:
星链-31098
卫星全名:
星链-31098 (STARLINK-31098 )
卫星状态:
在轨 (已飞行982 天)
发射日期:
2024-01-03 UTC
国别 :
美国 (US)
星等 :
--
This satellite is enrolled in the Space Conjunction Data Service (SCDS) and the current flight risk assessment level is: High Risk
Orbit Information
数据来源 国际轨道数据
星历时间: 2026-09-11T06:36:27+0800
21小时前
查看轨道信息
半长轴: 6840.889km
偏心率: 0.0001494
轨道倾角: 53.161°
近地点辐角 112.972°
升交点赤经 88.368°
平近点角 247.144°
近地点: 461.729km
远地点: 463.775km
周期: 93.849分钟
每日圈数: 15.343838
Detailed Information
固有亮度:
5
最大亮度:
0.3
卫星平台:
Starlink v2.0 mini
覆盖范围:
全球
运营商:
太空探索技术公司
运营商所在国:
美国
制造商(研发单位):
太空探索技术公司
制造商所在国:
美国
使用方式:
暂无
Satellite Introduction
星链(Starlink)计划是由太空探索技术公司(SpaceX)提出的一个巨型低轨卫星互联网星座项目,计划在2019年至2024年间在太空搭建由约1.2万颗卫星组成的“星链”网络,其中1584颗将部署在地球上空550千米处的近地轨道,并从2020年开始工作。该卫星仍在工作。
2D Orbit Map
3D Orbit Map
Orbit Altitude Analysis Chart
Orbit Inclination Analysis Chart
Orbit Comprehensive Analysis Chart
View Comprehensive Chart
Conjunction Data List
Event ID Objects TCA Miss Dist (km) Collision Risk Probability Collision Risk Index (CRI) Action
CDM_260913-204005-871606-562821
2026-09-13T
20:40:08+0000
0.911 km
远距离
2.281024E-5 中风险 0.62
CDM_260913-031505-871606-984622
2026-09-13T
03:15:51+0000
1.516 km
极远距离
3.992774E-6 低风险 0.47
CDM_260912-184005-871606-984622
2026-09-12T
18:40:00+0000
1.566 km
极远距离
3.612109E-6 低风险 0.46
CDM_260912-170605-871606-984622
2026-09-12T
17:06:12+0000
1.820 km
极远距离
2.330388E-6 低风险 0.42
CDM_260913-160905-871606-510521
2026-09-13T
16:09:38+0000
2.213 km
极远距离
1.954888E-6 低风险 0.41
CDM_260913-044905-871606-984621
2026-09-13T
04:49:39+0000
2.025 km
极远距离
1.770781E-6 低风险 0.4
CDM_260911-235604-377105-871622
OBJECT P (43771)
2026-09-11T
23:56:32+0000
2.701 km
极远距离
1.453002E-6 低风险 0.38
CDM_260913-190605-871606-562821
2026-09-13T
19:06:21+0000
2.252 km
极远距离
1.416456E-6 低风险 0.38
CDM_260913-215305-353905-871621
2026-09-13T
21:53:15+0000
2.749 km
极远距离
1.283354E-6 低风险 0.37
CDM_260913-143505-871606-510521
2026-09-13T
14:35:51+0000
2.839 km
极远距离
1.261588E-6 低风险 0.37
Miss Distance Evolution Trend with All Objects
Collision Probability Evolution Trend with All Objects